GW6261 Weather Reports


time (UTC)temp
C
wind
direction
speed
KPH
gust
KPH
rain 1hr
cm
rain 24hr
cm
rain mn
cm
humidity
%
barometer
mb
20260505173056 26 145 0.0 4.8 0.00 0.00 0.00 80 1007.0
20260505172556 26 109 1.6 14.5 0.00 0.00 0.00 80 1007.0
20260505172056 26 240 6.4 9.7 0.00 0.00 0.00 80 1007.0
20260505171556 26 195 3.2 9.7 0.00 0.00 0.00 79 1007.0
20260505171056 26 240 3.2 8.0 0.00 0.00 0.00 80 1007.0
20260505170556 26 164 3.2 12.9 0.00 0.00 0.00 80 1007.0
20260505170057 26 149 8.0 9.7 0.00 0.00 0.00 81 1007.0
20260505165557 26 174 6.4 9.7 0.00 0.00 0.00 80 1007.0
20260505165057 26 171 3.2 8.0 0.00 0.00 0.00 81 1007.0
20260505164557 26 204 4.8 8.0 0.00 0.00 0.00 80 1007.0
20260505164057 26 201 0.0 8.0 0.00 0.00 0.00 81 1007.0
20260505163557 26 225 3.2 6.4 0.00 0.00 0.00 81 1007.0
20260505163057 26 205 4.8 9.7 0.00 0.00 0.00 81 1007.0
20260505162600 26 145 6.4 8.0 0.00 0.00 0.00 81 1007.0
20260505162057 26 184 3.2 4.8 0.00 0.00 0.00 81 1007.0
20260505161557 26 267 3.2 6.4 0.00 0.00 0.00 81 1007.0
20260505161056 26 214 4.8 8.0 0.00 0.00 0.00 81 1007.0
20260505160556 26 187 4.8 8.0 0.00 0.00 0.00 81 1007.0
20260505153057 26 228 4.8 9.7 0.00 0.00 0.00 78 1007.0
20260505152558 26 249 4.8 8.0 0.00 0.00 0.00 79 1007.0
20260505152059 26 149 11.3 12.9 0.00 0.00 0.00 80 1007.0
20260505151556 26 152 3.2 9.7 0.00 0.00 0.00 81 1007.0
20260505151057 26 158 1.6 6.4 0.00 0.00 0.00 81 1007.0
20260505150605 26 187 3.2 11.3 0.00 0.00 0.00 81 1007.0
20260505140556 25 133 8.0 19.3 0.00 0.00 0.00 85 1007.0
20260505130116 23 128 8.0 9.7 0.00 0.00 0.00 89 1007.0
20260505124557 23 68 4.8 4.8 0.00 0.00 0.00 90 1007.0
20260505124056 23 135 4.8 4.8 0.00 0.00 0.00 90 1006.0
20260505123556 23 142 3.2 11.3 0.00 0.00 0.00 89 1006.0
20260505123057 23 101 3.2 4.8 0.00 0.00 0.00 89 1006.0
20260505122556 23 196 1.6 11.3 0.00 0.00 0.00 89 1006.0
20260505122058 23 144 3.2 8.0 0.00 0.00 0.00 89 1006.0
20260505121557 23 156 6.4 11.3 0.00 0.00 0.00 89 1006.0
20260505121056 23 101 1.6 11.3 0.00 0.00 0.00 89 1006.0
20260505120557 23 289 3.2 4.8 0.00 0.00 0.00 89 1006.0
20260505120057 23 162 3.2 8.0 0.00 0.00 0.00 89 1006.0
20260505115556 22 116 1.6 6.4 0.00 0.00 0.00 90 1007.0
20260505115056 22 150 3.2 8.0 0.00 0.00 0.00 90 1006.0
20260505114556 22 118 6.4 8.0 0.00 0.00 0.00 90 1006.0
20260505114057 22 131 1.6 3.2 0.00 0.00 0.00 90 1006.0
20260505113556 22 120 3.2 6.4 0.00 0.00 0.00 90 1006.0
20260505113056 22 201 3.2 4.8 0.00 0.00 0.00 89 1006.0
20260505112556 22 136 3.2 6.4 0.00 0.00 0.00 89 1006.0
20260505112056 22 140 6.4 8.0 0.00 0.00 0.00 89 1006.0
20260505111557 22 107 1.6 8.0 0.00 0.00 0.00 89 1006.0
20260505111056 22 153 6.4 12.9 0.00 0.00 0.00 89 1006.0
20260505110556 22 82 4.8 8.0 0.00 0.00 0.00 89 1006.0
20260505102057 22 126 1.6 8.0 0.00 0.00 0.00 88 1006.0
20260505101557 22 74 0.0 4.8 0.00 0.00 0.00 88 1006.0
20260505101056 22 202 3.2 9.7 0.00 0.00 0.00 88 1006.0
20260505100556 22 86 0.0 4.8 0.00 0.00 0.00 88 1006.0
20260505100056 22 153 6.4 11.3 0.00 0.00 0.00 88 1006.0
20260505095558 22 100 0.0 12.9 0.00 0.00 0.00 88 1006.0
20260505095059 22 132 3.2 8.0 0.00 0.00 0.00 88 1006.0
20260505094556 22 169 6.4 8.0 0.00 0.00 0.00 88 1006.0
20260505094056 22 133 6.4 8.0 0.00 0.00 0.00 88 1006.0
20260505093556 22 138 4.8 6.4 0.00 0.00 0.00 88 1007.0
20260505093057 22 155 3.2 6.4 0.00 0.00 0.00 88 1007.0
20260505092556 22 133 1.6 4.8 0.00 0.00 0.00 88 1007.0
20260505092056 22 123 3.2 6.4 0.00 0.00 0.00 88 1006.0
20260505091556 22 108 1.6 6.4 0.00 0.00 0.00 88 1006.0
20260505090610 22 233 1.6 9.7 0.00 0.00 0.00 88 1006.0
20260505090057 22 97 4.8 6.4 0.00 0.00 0.00 88 1007.0
20260505085556 22 150 0.0 8.0 0.00 0.00 0.00 88 1006.0
20260505085056 22 114 4.8 6.4 0.00 0.00 0.00 88 1007.0
20260505084556 22 150 6.4 6.4 0.00 0.00 0.00 88 1007.0
20260505084056 22 81 4.8 4.8 0.00 0.00 0.00 88 1006.0
20260505083557 22 136 6.4 6.4 0.00 0.00 0.00 88 1006.0
20260505083057 22 163 3.2 6.4 0.00 0.00 0.00 87 1007.0
20260505082557 22 165 3.2 6.4 0.00 0.00 0.00 87 1007.0
20260505082058 22 267 1.6 6.4 0.00 0.00 0.00 87 1007.0
20260505081557 22 139 4.8 8.0 0.00 0.00 0.00 87 1007.0
20260505081058 22 107 0.0 8.0 0.00 0.00 0.00 87 1007.0
20260505080556 22 127 4.8 8.0 0.00 0.00 0.00 87 1007.0
20260505080057 22 152 4.8 8.0 0.00 0.00 0.00 87 1007.0
20260505075556 22 113 8.0 9.7 0.00 0.00 0.00 88 1007.0
20260505075057 22 161 1.6 4.8 0.00 0.00 0.00 88 1007.0
20260505074222 22 119 4.8 6.4 0.00 0.00 0.00 88 1007.0
20260505073557 22 107 0.0 4.8 0.00 0.00 0.00 88 1007.0
20260505073057 22 67 3.2 6.4 0.00 0.00 0.00 88 1007.0
20260505072556 22 150 6.4 6.4 0.00 0.00 0.00 88 1007.0
20260505072057 21 281 0.0 9.7 0.00 0.00 0.00 88 1007.0
20260505071556 21 134 1.6 8.0 0.00 0.00 0.00 88 1007.0
20260505071057 21 101 3.2 4.8 0.00 0.00 0.00 88 1007.0
20260505070556 21 113 0.0 6.4 0.00 0.00 0.00 88 1007.0
20260505070058 21 79 4.8 6.4 0.00 0.00 0.00 88 1007.0
20260505065557 21 122 4.8 6.4 0.00 0.00 0.00 89 1007.0
20260505065056 21 108 4.8 8.0 0.00 0.00 0.00 89 1007.0
20260505064556 21 161 6.4 6.4 0.00 0.00 0.00 89 1008.0
20260505064057 21 75 1.6 4.8 0.00 0.00 0.00 89 1007.0
20260505063557 21 172 3.2 6.4 0.00 0.00 0.00 88 1008.0
20260505063057 21 266 0.0 4.8 0.00 0.00 0.00 88 1008.0
20260505062556 21 135 8.0 8.0 0.00 0.00 0.00 88 1008.0
20260505062056 21 93 3.2 6.4 0.00 0.00 0.00 88 1008.0
20260505061557 21 39 4.8 6.4 0.00 0.00 0.00 88 1008.0
20260505061056 21 133 6.4 9.7 0.00 0.00 0.00 88 1008.0
20260505060557 21 74 1.6 6.4 0.00 0.00 0.00 88 1008.0
20260505060056 21 98 4.8 6.4 0.00 0.00 0.00 88 1008.0
20260505055557 21 182 1.6 8.0 0.00 0.00 0.00 88 1008.0
20260505055056 21 119 0.0 6.4 0.00 0.00 0.00 88 1008.0
20260505054557 21 116 1.6 3.2 0.00 0.00 0.00 88 1008.0
20260505054056 21 132 1.6 1.6 0.00 0.00 0.00 88 1008.0
20260505053557 21 135 0.0 3.2 0.00 0.00 0.00 87 1008.0
20260505053056 21 147 0.0 3.2 0.00 0.00 0.00 87 1008.0
20260505052556 21 108 1.6 3.2 0.00 0.00 0.00 87 1008.0
20260505052058 21 102 1.6 3.2 0.00 0.00 0.00 87 1008.0
20260505051556 21 106 0.0 4.8 0.00 0.00 0.00 86 1008.0
20260505051056 21 93 1.6 6.4 0.00 0.00 0.00 86 1008.0
20260505050556 21 128 4.8 4.8 0.00 0.00 0.00 86 1008.0
20260505041556 21 117 3.2 6.4 0.00 0.00 0.00 84 1009.0
20260505041056 21 83 1.6 4.8 0.00 0.00 0.00 83 1008.0
20260505040556 21 101 1.6 4.8 0.00 0.00 0.00 83 1008.0
20260505040056 21 112 3.2 4.8 0.00 0.00 0.00 83 1009.0
20260505035556 21 124 3.2 8.0 0.00 0.00 0.00 83 1009.0
20260505035057 21 89 3.2 6.4 0.00 0.00 0.00 82 1009.0
20260505034556 21 83 1.6 4.8 0.00 0.00 0.00 82 1009.0
20260505034056 21 104 1.6 3.2 0.00 0.00 0.00 82 1009.0
20260505033556 21 130 0.0 4.8 0.00 0.00 0.00 81 1009.0
20260505033056 21 121 4.8 4.8 0.00 0.00 0.00 81 1009.0
20260505032556 22 127 3.2 4.8 0.00 0.00 0.00 81 1009.0
20260505032056 22 130 1.6 8.0 0.00 0.00 0.00 81 1009.0
20260505031556 22 123 3.2 4.8 0.00 0.00 0.00 80 1009.0
20260505031056 22 137 1.6 8.0 0.00 0.00 0.00 80 1009.0
20260505030556 22 132 6.4 8.0 0.00 0.00 0.00 79 1009.0
20260505030056 22 142 4.8 12.9 0.00 0.00 0.00 79 1009.0
20260505025556 22 39 1.6 4.8 0.00 0.00 0.00 79 1009.0
20260505025056 22 124 4.8 12.9 0.00 0.00 0.00 78 1009.0
20260505024558 22 147 1.6 12.9 0.00 0.00 0.00 78 1009.0
20260505024056 22 111 3.2 9.7 0.00 0.00 0.00 78 1009.0
20260505023557 22 126 0.0 8.0 0.00 0.00 0.00 77 1009.0
20260505023056 22 128 4.8 8.0 0.00 0.00 0.00 77 1009.0
20260505022557 22 138 8.0 9.7 0.00 0.00 0.00 77 1009.0
20260505022057 22 118 8.0 12.9 0.00 0.00 0.00 76 1009.0
20260505021556 22 143 8.0 12.9 0.00 0.00 0.00 76 1009.0
20260505021056 22 118 8.0 9.7 0.00 0.00 0.00 76 1009.0
20260505020556 23 121 3.2 12.9 0.00 0.00 0.00 76 1008.0
20260505020057 23 161 6.4 14.5 0.00 0.00 0.00 75 1008.0
20260505015557 23 210 3.2 6.4 0.00 0.00 0.00 75 1009.0
20260505015056 23 122 11.3 17.7 0.00 0.00 0.00 75 1008.0
20260505014556 23 138 4.8 11.3 0.00 0.00 0.00 75 1008.0
20260505014056 23 116 9.7 17.7 0.00 0.00 0.00 75 1008.0
20260505013600 23 131 4.8 9.7 0.00 0.00 0.00 75 1008.0
20260505013056 23 101 3.2 14.5 0.00 0.00 0.00 75 1008.0
20260505012559 23 132 3.2 12.9 0.00 0.00 0.00 75 1008.0
20260505012057 23 156 3.2 22.5 0.00 0.00 0.00 75 1008.0
20260505011559 23 115 6.4 12.9 0.00 0.00 0.00 74 1008.0
20260505011056 23 131 4.8 9.7 0.00 0.00 0.00 74 1008.0
20260505010556 23 132 6.4 14.5 0.00 0.00 0.00 74 1008.0
20260505010057 23 124 11.3 14.5 0.00 0.00 0.00 74 1008.0
20260505005556 23 124 3.2 9.7 0.00 0.00 0.00 73 1008.0
20260505005056 23 173 1.6 11.3 0.00 0.00 0.00 73 1008.0
20260505004556 23 161 0.0 11.3 0.00 0.00 0.00 72 1008.0
20260505004057 23 120 16.1 17.7 0.00 0.00 0.00 72 1008.0
20260505003559 23 150 8.0 25.7 0.00 0.00 0.00 71 1008.0
20260505003056 23 128 11.3 17.7 0.00 0.00 0.00 71 1008.0
20260505002556 23 130 9.7 16.1 0.00 0.00 0.00 71 1008.0
20260505002058 23 146 6.4 20.9 0.00 0.00 0.00 71 1008.0
20260505001556 24 146 8.0 20.9 0.00 0.00 0.00 70 1008.0
20260505001056 24 136 8.0 19.3 0.00 0.00 0.00 70 1008.0
20260505000558 24 119 14.5 17.7 0.00 0.00 0.00 69 1008.0
20260505000056 24 145 3.2 17.7 0.00 0.00 0.00 69 1008.0
20260504235556 24 144 4.8 17.7 0.00 0.00 0.00 69 1008.0
20260504235056 25 147 6.4 27.4 0.00 0.00 0.00 68 1008.0
20260504234556 25 128 17.7 27.4 0.00 0.00 0.00 68 1008.0
20260504234057 25 136 12.9 16.1 0.00 0.00 0.00 68 1008.0
20260504233556 24 189 1.6 9.7 0.00 0.00 0.00 69 1008.0
20260504233056 24 120 16.1 17.7 0.00 0.00 0.00 69 1009.0
20260504232557 24 116 3.2 20.9 0.00 0.00 0.00 69 1009.0
20260504232056 24 114 20.9 25.7 0.00 0.00 0.00 68 1009.0
20260504231557 25 168 8.0 25.7 0.00 0.00 0.00 68 1009.0
20260504231057 25 148 6.4 17.7 0.00 0.00 0.00 68 1009.0
20260504230556 25 128 25.7 27.4 0.00 0.00 0.00 67 1009.0
20260504230056 25 116 12.9 17.7 0.00 0.00 0.00 68 1009.0
20260504225557 25 135 9.7 20.9 0.00 0.00 0.00 67 1009.0
20260504225057 25 124 14.5 20.9 0.00 0.00 0.00 67 1009.0
20260504224556 25 138 12.9 24.1 0.00 0.00 0.00 67 1009.0
20260504224056 25 132 20.9 22.5 0.00 0.00 0.00 67 1009.0
20260504223557 25 121 20.9 30.6 0.00 0.00 0.00 67 1009.0
20260504223057 25 142 6.4 17.7 0.00 0.00 0.00 67 1009.0
20260504222556 25 210 3.2 27.4 0.00 0.00 0.00 67 1009.0
20260504222056 25 133 16.1 25.7 0.00 0.00 0.00 66 1009.0
20260504221556 25 156 4.8 11.3 0.00 0.00 0.00 66 1009.0
20260504221057 25 150 6.4 14.5 0.00 0.00 0.00 66 1009.0
20260504220556 25 129 12.9 17.7 0.00 0.00 0.00 66 1009.0
20260504220056 25 123 14.5 19.3 0.00 0.00 0.00 66 1009.0
20260504215556 25 126 14.5 17.7 0.00 0.00 0.00 66 1009.0
20260504215056 25 121 11.3 27.4 0.00 0.00 0.00 65 1009.0
20260504214556 25 142 12.9 20.9 0.00 0.00 0.00 65 1010.0
20260504214057 25 130 12.9 24.1 0.00 0.00 0.00 65 1010.0
20260504213558 25 176 0.0 8.0 0.00 0.00 0.00 64 1010.0
20260504213056 25 147 9.7 24.1 0.00 0.00 0.00 64 1010.0
20260504212556 25 131 12.9 14.5 0.00 0.00 0.00 63 1010.0
20260504212057 25 105 12.9 22.5 0.00 0.00 0.00 63 1010.0
20260504211556 26 119 11.3 25.7 0.00 0.00 0.00 63 1010.0
20260504211056 26 91 3.2 8.0 0.00 0.00 0.00 62 1010.0
20260504210556 26 169 1.6 12.9 0.00 0.00 0.00 62 1010.0
20260504210056 26 153 4.8 20.9 0.00 0.00 0.00 62 1010.0
20260504205556 26 149 8.0 9.7 0.00 0.00 0.00 61 1010.0
20260504205057 26 144 12.9 24.1 0.00 0.00 0.00 61 1010.0
20260504204556 26 200 0.0 24.1 0.00 0.00 0.00 62 1010.0
20260504204056 26 135 8.0 12.9 0.00 0.00 0.00 61 1010.0
20260504203556 26 121 12.9 22.5 0.00 0.00 0.00 60 1010.0
20260504203056 26 161 6.4 22.5 0.00 0.00 0.00 60 1010.0
20260504202556 26 151 6.4 17.7 0.00 0.00 0.00 61 1010.0
20260504202056 26 98 14.5 17.7 0.00 0.00 0.00 60 1010.0
20260504201557 26 115 9.7 14.5 0.00 0.00 0.00 61 1010.0
20260504201058 26 119 27.4 30.6 0.00 0.00 0.00 60 1010.0
20260504200556 26 167 4.8 24.1 0.00 0.00 0.00 61 1010.0
20260504200056 26 162 8.0 24.1 0.00 0.00 0.00 60 1010.0
20260504195558 26 108 16.1 24.1 0.00 0.00 0.00 59 1011.0
20260504195056 26 126 16.1 24.1 0.00 0.00 0.00 58 1011.0
20260504194556 26 161 0.0 12.9 0.00 0.00 0.00 58 1010.0
20260504194057 27 223 3.2 12.9 0.00 0.00 0.00 57 1011.0
20260504193556 26 150 12.9 17.7 0.00 0.00 0.00 59 1011.0
20260504193057 26 135 12.9 17.7 0.00 0.00 0.00 58 1011.0
20260504192556 26 148 6.4 20.9 0.00 0.00 0.00 58 1011.0
20260504192056 26 151 6.4 16.1 0.00 0.00 0.00 58 1011.0
20260504191557 26 140 11.3 20.9 0.00 0.00 0.00 59 1011.0
20260504191056 26 117 8.0 16.1 0.00 0.00 0.00 58 1011.0
20260504190556 26 129 1.6 20.9 0.00 0.00 0.00 58 1011.0
20260504190057 26 142 8.0 11.3 0.00 0.00 0.00 58 1012.0
20260504185557 26 253 4.8 16.1 0.00 0.00 0.00 57 1012.0
20260504185056 26 145 6.4 9.7 0.00 0.00 0.00 56 1012.0
20260504184556 26 180 3.2 14.5 0.00 0.00 0.00 57 1012.0
20260504184056 26 222 4.8 8.0 0.00 0.00 0.00 56 1012.0
20260504183556 26 125 17.7 20.9 0.00 0.00 0.00 57 1011.0
20260504183057 26 130 11.3 24.1 0.00 0.00 0.00 57 1012.0
20260504182557 26 124 6.4 6.4 0.00 0.00 0.00 57 1012.0
20260504182056 27 127 24.1 27.4 0.00 0.00 0.00 54 1012.0
20260504181556 26 214 4.8 14.5 0.00 0.00 0.00 55 1012.0
20260504181057 26 115 11.3 17.7 0.00 0.00 0.00 55 1012.0
20260504180557 26 144 6.4 14.5 0.00 0.00 0.00 56 1012.0
20260504180056 26 146 11.3 14.5 0.00 0.00 0.00 55 1012.0
20260504175556 26 123 11.3 16.1 0.00 0.00 0.00 56 1012.0
20260504175057 26 164 3.2 20.9 0.00 0.00 0.00 56 1012.0
20260504174556 26 157 3.2 29.0 0.00 0.00 0.00 55 1012.0
20260504174056 27 121 11.3 27.4 0.00 0.00 0.00 52 1012.0
20260504173556 27 193 1.6 11.3 0.00 0.00 0.00 53 1012.0